[[{"header":{"parameterUnit":"m.s-1","parameterCategory":1,"la1":30.2991,"la2":30.254,"lo1":-89.0895,"lo2":-89.0444,"dy":0.0017,"dx":0.0017,"nx":28,"ny":28,"refTime":"2025-06-05T09:00:00:Z","depth":0,"parameterNumber":2,"parameterNumberName":"U-component_of_WINDS"},"data":[0,0,0,0,0,0,0,0,0,0,0,0,0,0,0,0,0,0,0,0,0,0,0,0,0,0,0,0,0,0,0,0,0,0,0,0,0,0,0,0,0,0,0,0,0,0,0,0,0,0,0,0,0,0,0,0,0,0,4.619,4.6192,0,4.64,4.6402,4.6405,4.6394,4.6391,4.6388,4.6385,4.6602,4.661,4.6619,0,0,0,0,0,0,0,0,0,0,0,0,0,4.5779,4.5787,4.619,4.6192,4.6195,4.6399,4.6402,4.6405,4.6394,4.6391,4.6387,4.6384,4.6599,4.6609,4.6619,0,0,0,0,0,0,0,0,0,0,0,0,0,4.597,4.5789,4.6189,4.6214,4.6219,4.6399,4.6402,4.6406,4.6395,4.6391,4.6386,4.6382,4.6596,4.6608,4.6621,4.6791,0,0,4.666,4.6666,0,0,0,0,0,0,0,0,4.5959,4.5985,4.6208,4.6213,4.6218,4.6366,4.6337,4.6535,4.6396,4.6328,4.6385,4.638,4.6527,4.6545,4.6595,4.6801,4.681,4.6661,4.6669,4.6675,4.6678,0,0,0,0,0,0,0,4.5946,4.5976,4.6273,4.6211,4.6217,4.6215,4.6237,4.6374,4.645,4.6334,4.6333,4.6358,4.6529,4.6582,4.66,4.6813,4.6661,4.6672,4.668,4.6685,4.7165,4.717,0,0,0,0,0,0,4.5927,4.5965,4.6266,4.6279,4.6075,4.6226,4.6251,4.6323,4.6449,4.6464,4.6362,4.6357,4.6562,4.6585,4.6607,4.6811,4.6674,4.6686,4.6694,4.716,4.7166,4.7172,0,0,0,0,0,0,4.5919,4.5954,4.6258,4.6122,4.6161,4.6238,4.6319,4.633,4.6383,4.647,4.6484,4.6402,4.656,4.6589,4.6744,4.6819,4.6692,4.6704,4.7154,4.7162,4.7169,4.7222,0,0,0,0,0,0,4.5907,4.5951,4.6017,4.6124,4.6168,4.6391,4.6324,4.6337,4.6405,4.64,4.6512,4.6526,4.6558,4.6725,4.6757,4.6834,4.6714,4.7148,4.7158,4.7167,4.7214,4.7231,4.7245,0,0,0,0,0,4.5892,4.6025,4.602,4.6057,4.6252,4.6396,4.6421,4.6455,4.6411,4.6477,4.6533,4.6522,4.6806,4.6741,4.6777,4.6859,4.7143,4.7155,4.7166,4.7207,4.7228,4.7245,0,0,0,0,0,0,4.5926,4.6039,4.6036,4.6207,4.6292,4.6394,4.6478,4.6476,4.6576,4.6568,4.6606,4.6632,4.6786,4.6839,4.6764,4.7028,4.6969,4.6988,4.6988,4.7008,4.7023,4.7006,4.6725,0,0,0,0,0,4.5953,4.6061,4.6154,4.6296,4.6339,4.6401,4.6465,4.6484,4.6574,4.661,4.6677,4.6765,4.6873,4.6944,4.7049,4.7222,4.7245,4.7296,4.7312,4.7324,4.7339,4.7431,4.7454,4.7209,4.7209,4.7209,0,0,4.6011,4.6086,4.6152,4.6305,4.6373,4.6482,4.6432,4.6551,4.6632,4.6628,4.6777,4.683,4.693,4.7094,4.717,4.7142,4.7412,4.7338,4.7347,4.7356,4.7445,4.7468,4.7489,4.7217,4.7215,4.7214,0,0,4.6171,4.624,4.6364,4.6433,4.6535,4.6576,4.6605,4.6708,4.6741,4.6892,4.689,4.6988,4.7175,4.7245,4.7305,4.7489,4.7482,4.7522,4.7602,4.7691,4.771,4.7728,4.779,4.7812,4.7538,4.7538,4.7538,0,4.623,4.6395,4.6429,4.6547,4.6613,4.6614,4.6738,4.6804,4.6936,4.6981,4.6949,4.718,4.7249,4.7427,4.7471,4.7521,4.7555,4.7509,4.7705,4.7723,4.7739,4.7799,4.7823,4.7542,4.7541,4.7541,4.7541,0,4.646,4.6575,4.6663,4.6788,4.6864,4.6986,4.7037,4.711,4.7122,4.7165,4.7316,4.7397,4.7517,4.7561,4.7575,4.7741,4.772,4.7696,4.7637,4.7766,4.7823,4.7846,4.7547,4.7546,4.7545,4.7544,0,0,4.6649,4.6789,4.682,4.6875,4.6988,4.7077,4.7197,4.7313,4.7373,4.7465,4.7565,4.7722,4.7699,4.7767,4.7789,4.7867,4.8004,4.7833,4.7836,4.7859,4.8188,4.8203,4.8229,4.8,4.8005,4.8009,4.8178,0,4.6818,4.7031,4.7063,4.725,4.7355,4.7355,4.746,4.7539,4.7583,4.7677,4.7726,4.7834,4.7798,4.7838,4.7917,4.797,4.807,4.7959,4.8093,4.8097,4.8064,4.826,4.8277,4.8434,4.8201,4.8205,4.8208,0,4.7045,4.7139,4.7336,4.743,4.7475,4.7569,4.7675,4.7767,4.7856,4.7882,4.7957,4.7968,4.8091,4.8028,4.8198,4.8121,4.8178,4.8213,4.8219,4.8231,4.8158,4.8274,4.8485,4.8507,4.8244,4.8241,4.8238,0,4.7158,4.7334,4.7474,4.7522,4.7637,4.7702,4.7753,4.7838,4.7904,4.7998,4.8041,4.8149,4.8207,4.8289,4.8328,4.8279,4.8494,4.8435,4.8518,4.8516,4.8561,4.8557,4.8781,4.8603,4.8602,4.8602,4.8601,0,4.7342,4.7462,4.7526,4.7611,4.7745,4.778,4.7911,4.7961,4.8036,4.813,4.8139,4.8227,4.8275,4.837,4.8402,4.8535,4.8563,4.8586,4.8592,4.8583,4.858,4.8619,4.8608,4.8608,4.8607,4.8605,4.8604,0,4.749,4.7539,4.769,4.7786,4.7812,4.7906,4.7987,4.807,4.8112,4.8231,4.8261,4.8327,4.8439,4.8487,4.8626,4.8647,4.8799,4.8799,4.8768,4.877,4.8848,4.8839,4.9102,4.9137,4.8939,4.894,4.8942,0,4.7604,4.7695,4.78,4.7863,4.7915,4.8017,4.8084,4.8123,4.8192,4.8299,4.8368,4.848,4.8571,4.875,4.8811,4.8916,4.8917,4.9002,4.8932,4.8919,4.8914,4.8907,4.8914,4.9013,4.9016,4.9017,4.9018,0,4.7798,4.7817,4.7912,4.8016,4.8095,4.8179,4.8261,4.8312,4.8363,4.844,4.8554,4.8625,4.8764,4.8874,4.8983,4.9035,4.9035,4.904,4.9064,4.9054,4.9031,4.9041,4.8799,4.9033,4.9032,4.9031,4.903,4.9029,4.7931,4.801,4.8095,4.8201,4.8266,4.8341,4.8422,4.8473,4.8569,4.8684,4.8702,4.8822,4.8907,4.9052,4.9108,4.9203,4.9181,4.9217,4.9226,4.9233,4.9236,4.9018,4.9223,4.9223,4.9223,4.9222,4.9222,0,4.8122,4.8176,4.8273,4.8386,4.8468,4.846,4.855,4.8619,4.8725,4.8804,4.8892,4.9021,4.9128,4.9195,4.9302,4.9364,4.9367,4.9391,4.9385,4.9396,4.9251,4.9218,4.9387,4.9387,4.9387,4.9387,4.9387,4.9387,4.8232,4.8365,4.8393,4.8558,4.8612,4.8729,4.878,4.8849,4.8912,4.9055,4.9142,4.9186,4.9259,4.9371,4.9467,4.9484,4.9522,4.9547,4.9562,4.9425,4.9407,4.9391,4.936,4.9556,4.9556,4.9699,4.97,4.9701]},{"header":{"parameterUnit":"m.s-1","parameterCategory":1,"la1":30.2991,"la2":30.254,"lo1":-89.0895,"lo2":-89.0444,"dy":0.0017,"dx":0.0017,"nx":28,"ny":28,"refTime":"2025-06-05T09:00:00:Z","depth":0,"parameterNumber":3,"parameterNumberName":"V-component_of_WINDS"},"data":[0,0,0,0,0,0,0,0,0,0,0,0,0,0,0,0,0,0,0,0,0,0,0,0,0,0,0,0,0,0,0,0,0,0,0,0,0,0,0,0,0,0,0,0,0,0,0,0,0,0,0,0,0,0,0,0,0,0,1.1022,1.1022,0,1.1056,1.1056,1.1057,1.1019,1.1018,1.1016,1.1015,1.1052,1.1054,1.1057,0,0,0,0,0,0,0,0,0,0,0,0,0,1.0925,1.0927,1.1022,1.1022,1.1022,1.1056,1.1056,1.1057,1.1019,1.1018,1.1016,1.1014,1.1051,1.1054,1.1057,0,0,0,0,0,0,0,0,0,0,0,0,0,1.0964,1.0927,1.1022,1.1008,1.1007,1.1056,1.1056,1.1057,1.102,1.1018,1.1015,1.1013,1.105,1.1054,1.1057,1.1122,0,0,1.1068,1.107,0,0,0,0,0,0,0,0,1.0962,1.0967,1.1009,1.1009,1.1008,1.1031,1.1036,1.1079,1.102,1.1015,1.1015,1.1012,1.1047,1.1051,1.1062,1.1124,1.1126,1.1068,1.107,1.1072,1.1073,0,0,0,0,0,0,0,1.0959,1.0966,1.1035,1.101,1.1009,1.1,1.1003,1.1044,1.1043,1.1015,1.1013,1.1017,1.1046,1.1059,1.1063,1.1126,1.1068,1.1071,1.1074,1.1075,1.1243,1.1245,0,0,0,0,0,0,1.0958,1.0964,1.1034,1.1036,1.0979,1.1004,1.1007,1.1026,1.1042,1.1043,1.1019,1.1015,1.1054,1.1058,1.1064,1.1141,1.1072,1.1075,1.1077,1.124,1.1243,1.1246,0,0,0,0,0,0,1.0956,1.0964,1.1033,1.0999,1.1007,1.1008,1.1029,1.1028,1.104,1.1045,1.1045,1.1032,1.1052,1.1059,1.1108,1.1142,1.1077,1.108,1.1238,1.1241,1.1245,1.1296,0,0,0,0,0,0,1.0953,1.0964,1.0988,1.1,1.1009,1.1076,1.1031,1.103,1.1046,1.1041,1.1057,1.1057,1.1051,1.1103,1.1111,1.1145,1.1083,1.1235,1.1239,1.1243,1.1291,1.1301,1.1309,0,0,0,0,0,1.095,1.1002,1.099,1.0998,1.104,1.1078,1.1083,1.1074,1.1049,1.1074,1.1077,1.1057,1.1136,1.1108,1.1117,1.1153,1.1233,1.1238,1.1243,1.1287,1.1299,1.1309,0,0,0,0,0,0,1.0995,1.1003,1.099,1.1047,1.1062,1.1072,1.1103,1.1087,1.111,1.1105,1.1093,1.1097,1.1149,1.1156,1.1124,1.1216,1.118,1.1188,1.1211,1.1222,1.123,1.1228,1.1086,0,0,0,0,0,1.1011,1.1041,1.1047,1.1097,1.1105,1.1103,1.1119,1.1111,1.1126,1.1132,1.1139,1.1155,1.1184,1.1203,1.1229,1.1291,1.1294,1.132,1.1329,1.1336,1.1343,1.1377,1.1389,1.1263,1.1263,1.1263,0,0,1.1046,1.1054,1.1074,1.1106,1.1117,1.1149,1.1108,1.1144,1.1167,1.1138,1.1185,1.119,1.1207,1.1263,1.1288,1.127,1.1378,1.1343,1.1349,1.1352,1.1383,1.1395,1.1406,1.1267,1.1266,1.1266,0,0,1.1126,1.1135,1.1177,1.1189,1.1205,1.1203,1.1213,1.1225,1.1227,1.1273,1.1252,1.1279,1.1329,1.1342,1.1355,1.1438,1.1421,1.1447,1.1494,1.1527,1.1537,1.1545,1.1576,1.1587,1.1454,1.1454,1.1454,0,1.1167,1.1214,1.1202,1.1238,1.1253,1.1227,1.127,1.1282,1.1306,1.1317,1.1297,1.1357,1.1367,1.1426,1.1446,1.1457,1.1469,1.1446,1.1536,1.1545,1.1553,1.1581,1.1593,1.1457,1.1457,1.1456,1.1456,0,1.1264,1.1297,1.1329,1.1353,1.1371,1.1411,1.1405,1.1425,1.1415,1.1415,1.1463,1.1473,1.1501,1.1514,1.1505,1.1571,1.156,1.1538,1.1501,1.1568,1.1595,1.1606,1.1462,1.146,1.1459,1.1459,0,0,1.1375,1.139,1.1402,1.1412,1.1428,1.1453,1.1491,1.1518,1.1536,1.1553,1.1586,1.1627,1.1607,1.1622,1.1613,1.1642,1.1708,1.1616,1.1616,1.1634,1.1782,1.18,1.1813,1.1696,1.1698,1.1699,1.1781,0,1.1455,1.1522,1.1511,1.1576,1.1606,1.1581,1.1614,1.1627,1.1628,1.1654,1.1655,1.1685,1.1655,1.1664,1.1691,1.1694,1.1738,1.1688,1.1727,1.1728,1.1724,1.1826,1.1845,1.1922,1.1791,1.1793,1.1795,0,1.1558,1.1579,1.1646,1.1656,1.1668,1.1699,1.1722,1.1747,1.1761,1.176,1.1776,1.1762,1.1801,1.1763,1.1817,1.1783,1.1798,1.1802,1.1804,1.1809,1.1766,1.1834,1.1946,1.1958,1.1811,1.181,1.1808,0,1.1633,1.1677,1.1723,1.1732,1.1745,1.1767,1.1774,1.1786,1.1802,1.1823,1.1834,1.1858,1.1872,1.1892,1.1886,1.1858,1.1941,1.1902,1.1941,1.1942,1.1961,1.196,1.2077,1.1969,1.1969,1.1969,1.1968,0,1.1725,1.1767,1.1757,1.1785,1.1832,1.1819,1.1866,1.1869,1.188,1.1909,1.1889,1.1916,1.1905,1.1932,1.1927,1.1973,1.1979,1.1979,1.1978,1.1982,1.1982,1.1993,1.1987,1.1972,1.1971,1.197,1.197,0,1.1817,1.1811,1.186,1.1868,1.187,1.1905,1.1912,1.1938,1.1937,1.1974,1.1982,1.198,1.2011,1.2005,1.204,1.2036,1.2093,1.2084,1.2088,1.2087,1.2127,1.2123,1.2256,1.2273,1.2152,1.2154,1.2154,0,1.1876,1.1908,1.1919,1.1936,1.1944,1.1973,1.1989,1.1978,1.1996,1.2014,1.2039,1.2067,1.209,1.214,1.2142,1.2168,1.2161,1.2205,1.2165,1.2168,1.2162,1.2161,1.2164,1.2214,1.2215,1.2216,1.2217,0,1.1982,1.1977,1.2002,1.2025,1.2045,1.2063,1.2079,1.2095,1.2085,1.2106,1.2137,1.2154,1.2188,1.2217,1.2241,1.2248,1.2232,1.2229,1.224,1.2245,1.2247,1.2247,1.2111,1.2227,1.2226,1.2225,1.2225,1.2224,1.206,1.2087,1.2099,1.2126,1.2137,1.2152,1.2178,1.2179,1.2204,1.2231,1.2223,1.2258,1.2271,1.2301,1.2311,1.2338,1.2322,1.2337,1.2341,1.2346,1.2351,1.2241,1.2343,1.2342,1.2342,1.2342,1.2342,0,1.2165,1.2171,1.2197,1.222,1.2241,1.2222,1.2239,1.2258,1.2289,1.2303,1.2325,1.236,1.2388,1.2392,1.2418,1.2439,1.2432,1.2446,1.2445,1.2447,1.2364,1.2352,1.2452,1.2452,1.2452,1.2452,1.2452,1.2452,1.2223,1.2268,1.2265,1.2315,1.232,1.2354,1.2365,1.2379,1.239,1.243,1.2453,1.2455,1.2464,1.2491,1.2515,1.2516,1.2527,1.2545,1.2542,1.2464,1.2453,1.2443,1.2432,1.2547,1.2547,1.2624,1.2625,1.2625]}]]